GW3913 Weather Reports


time (UTC)temp
C
wind
direction
speed
KPH
gust
KPH
rain 1hr
cm
rain 24hr
cm
rain mn
cm
humidity
%
barometer
mb
20260906234233 34 187 9.7 12.9 0.00 0.00 0.00 21 1022.2
20260906233732 35 233 4.8 9.7 0.00 0.00 0.00 20 1021.9
20260906233226 34 193 1.6 8.0 0.00 0.00 0.00 20 1022.3
20260906232721 35 178 3.2 8.0 0.00 0.00 0.00 20 1022.2
20260906232216 35 241 4.8 9.7 0.00 0.00 0.00 20 1022.0
20260906231711 35 151 8.0 16.1 0.00 0.00 0.00 20 1022.3
20260906231206 35 177 1.6 4.8 0.00 0.00 0.00 21 1022.3
20260906230705 35 151 1.6 3.2 0.00 0.00 0.00 20 1022.3
20260906230159 35 166 4.8 12.9 0.00 0.00 0.00 20 1022.0
20260906225653 34 227 4.8 9.7 0.00 0.00 0.00 19 1022.2
20260906225149 35 277 4.8 16.1 0.00 0.00 0.00 19 1022.3
20260906224644 35 195 3.2 4.8 0.00 0.00 0.00 19 1022.2
20260906224141 35 212 3.2 9.7 0.00 0.00 0.00 19 1022.3
20260906223638 34 188 6.4 9.7 0.00 0.00 0.00 20 1022.5
20260906223137 35 238 9.7 17.7 0.00 0.00 0.00 19 1022.3
20260906222635 35 163 4.8 20.9 0.00 0.00 0.00 20 1022.5
20260906222134 35 173 0.0 3.2 0.00 0.00 0.00 19 1022.5
20260906221632 35 190 0.0 3.2 0.00 0.00 0.00 18 1022.6
20260906221127 35 233 6.4 12.9 0.00 0.00 0.00 19 1022.5
20260906220622 34 210 6.4 20.9 0.00 0.00 0.00 19 1022.8
20260906220117 34 191 9.7 16.1 0.00 0.00 0.00 20 1022.8
20260906215616 35 183 9.7 17.7 0.00 0.00 0.00 19 1022.7
20260906215115 35 265 12.9 17.7 0.00 0.00 0.00 19 1022.9
20260906214613 35 173 4.8 12.9 0.00 0.00 0.00 19 1023.0
20260906214109 35 160 3.2 8.0 0.00 0.00 0.00 18 1022.9
20260906213608 36 216 1.6 8.0 0.00 0.00 0.00 18 1023.3
20260906213103 35 197 3.2 8.0 0.00 0.00 0.00 18 1023.5
20260906212600 35 223 3.2 4.8 0.00 0.00 0.00 17 1023.4
20260906212056 35 159 3.2 4.8 0.00 0.00 0.00 19 1023.4
20260906211555 34 238 9.7 17.7 0.00 0.00 0.00 19 1023.6
20260906211051 34 227 3.2 16.1 0.00 0.00 0.00 19 1023.8
20260906210546 35 313 3.2 12.9 0.00 0.00 0.00 18 1023.9
20260906210041 34 187 1.6 12.9 0.00 0.00 0.00 18 1023.6
20260906205537 35 287 9.7 17.7 0.00 0.00 0.00 18 1023.9
20260906205033 35 101 4.8 8.0 0.00 0.00 0.00 18 1024.1
20260906204527 34 196 1.6 9.7 0.00 0.00 0.00 19 1024.0
20260906204026 33 183 1.6 3.2 0.00 0.00 0.00 19 1024.2
20260906203526 34 207 8.0 16.1 0.00 0.00 0.00 19 1024.2
20260906203021 33 225 4.8 9.7 0.00 0.00 0.00 18 1024.2
20260906202513 34 229 3.2 4.8 0.00 0.00 0.00 18 1024.3
20260906202007 33 208 4.8 4.8 0.00 0.00 0.00 18 1024.5
20260906201502 33 199 1.6 12.9 0.00 0.00 0.00 19 1024.6
20260906201002 33 280 8.0 20.9 0.00 0.00 0.00 19 1024.7
20260906200458 33 206 11.3 12.9 0.00 0.00 0.00 18 1024.6
20260906195958 33 304 9.7 20.9 0.00 0.00 0.00 19 1024.5
20260906195454 34 191 6.4 9.7 0.00 0.00 0.00 18 1024.6
20260906194949 34 233 6.4 8.0 0.00 0.00 0.00 18 1024.6
20260906194445 34 283 11.3 16.1 0.00 0.00 0.00 17 1024.8
20260906193940 33 121 4.8 9.7 0.00 0.00 0.00 19 1024.9
20260906193436 33 199 8.0 9.7 0.00 0.00 0.00 18 1025.1
20260906192931 33 181 1.6 9.7 0.00 0.00 0.00 18 1024.9
20260906192426 32 171 4.8 9.7 0.00 0.00 0.00 19 1025.2
20260906191925 32 270 4.8 8.0 0.00 0.00 0.00 20 1025.2
20260906191420 34 220 11.3 16.1 0.00 0.00 0.00 19 1025.1
20260906190914 33 171 1.6 4.8 0.00 0.00 0.00 20 1025.4
20260906190413 33 141 0.0 9.7 0.00 0.00 0.00 20 1025.4
20260906185908 33 43 4.8 9.7 0.00 0.00 0.00 20 1025.3
20260906185407 33 203 4.8 12.9 0.00 0.00 0.00 21 1025.6
20260906184906 32 187 0.0 3.2 0.00 0.00 0.00 21 1025.6
20260906184401 33 185 1.6 4.8 0.00 0.00 0.00 20 1025.6
20260906183857 33 310 6.4 9.7 0.00 0.00 0.00 20 1025.8
20260906183353 32 205 3.2 4.8 0.00 0.00 0.00 21 1025.9
20260906182848 32 41 8.0 16.1 0.00 0.00 0.00 22 1025.8
20260906182343 32 248 6.4 12.9 0.00 0.00 0.00 22 1026.1
20260906181844 32 138 8.0 9.7 0.00 0.00 0.00 23 1026.2
20260906181340 31 177 3.2 8.0 0.00 0.00 0.00 23 1026.3
20260906180835 32 238 4.8 8.0 0.00 0.00 0.00 23 1026.3
20260906180330 31 271 6.4 9.7 0.00 0.00 0.00 24 1026.5
20260906175827 31 179 0.0 3.2 0.00 0.00 0.00 24 1026.3
20260906175323 31 113 3.2 3.2 0.00 0.00 0.00 23 1026.5
20260906174822 31 213 3.2 8.0 0.00 0.00 0.00 24 1026.5
20260906174321 31 37 4.8 4.8 0.00 0.00 0.00 24 1026.7
20260906173816 30 201 3.2 4.8 0.00 0.00 0.00 28 1026.6
20260906173312 31 217 6.4 8.0 0.00 0.00 0.00 28 1026.8
20260906172811 30 278 4.8 4.8 0.00 0.00 0.00 29 1026.9
20260906172308 30 179 0.0 3.2 0.00 0.00 0.00 29 1026.9
20260906171808 30 183 0.0 4.8 0.00 0.00 0.00 29 1026.9
20260906171302 30 164 1.6 8.0 0.00 0.00 0.00 29 1026.9
20260906170758 30 193 3.2 8.0 0.00 0.00 0.00 30 1027.1
20260906170254 29 241 3.2 4.8 0.00 0.00 0.00 30 1026.8
20260906165750 29 26 3.2 8.0 0.00 0.00 0.00 30 1026.9
20260906165244 29 237 1.6 8.0 0.00 0.00 0.00 30 1027.2
20260906164743 28 209 1.6 4.8 0.00 0.00 0.00 31 1027.3
20260906164238 27 185 0.0 4.8 0.00 0.00 0.00 31 1027.2
20260906163734 27 157 0.0 3.2 0.00 0.00 0.00 33 1027.3
20260906163230 27 173 0.0 3.2 0.00 0.00 0.00 33 1027.3
20260906162727 26 204 3.2 4.8 0.00 0.00 0.00 34 1027.3
20260906162222 26 141 3.2 4.8 0.00 0.00 0.00 33 1027.2
20260906161717 26 163 0.0 0.0 0.00 0.00 0.00 34 1027.1
20260906161216 26 46 0.0 3.2 0.00 0.00 0.00 34 1027.2
20260906160715 25 171 1.6 3.2 0.00 0.00 0.00 34 1027.2
20260906160214 25 190 1.6 8.0 0.00 0.00 0.00 35 1027.1
20260906155712 25 161 0.0 3.2 0.00 0.00 0.00 35 1027.2
20260906155207 25 150 0.0 3.2 0.00 0.00 0.00 36 1027.2
20260906154702 25 160 0.0 4.8 0.00 0.00 0.00 37 1027.3
20260906154157 24 211 4.8 8.0 0.00 0.00 0.00 37 1027.2
20260906153655 24 229 4.8 8.0 0.00 0.00 0.00 37 1027.2
20260906153150 24 188 4.8 8.0 0.00 0.00 0.00 37 1027.2
20260906152645 25 288 3.2 4.8 0.00 0.00 0.00 37 1027.3
20260906152144 24 359 4.8 4.8 0.00 0.00 0.00 36 1027.2
20260906151639 24 169 1.6 4.8 0.00 0.00 0.00 36 1027.2
20260906151135 24 136 1.6 3.2 0.00 0.00 0.00 35 1027.3
20260906150630 24 110 1.6 4.8 0.00 0.00 0.00 36 1026.9
20260906150126 23 88 1.6 4.8 0.00 0.00 0.00 36 1027.1
20260906145624 23 181 3.2 9.7 0.00 0.00 0.00 37 1027.1
20260906145119 23 23 4.8 4.8 0.00 0.00 0.00 37 1027.1
20260906144614 22 357 4.8 9.7 0.00 0.00 0.00 39 1027.1
20260906144109 22 13 3.2 4.8 0.00 0.00 0.00 39 1027.1
20260906143604 22 189 1.6 4.8 0.00 0.00 0.00 40 1026.9
20260906143101 22 89 1.6 4.8 0.00 0.00 0.00 39 1027.1
20260906142600 23 349 6.4 8.0 0.00 0.00 0.00 39 1026.9
20260906142055 22 39 1.6 3.2 0.00 0.00 0.00 40 1026.9
20260906141554 22 164 3.2 4.8 0.00 0.00 0.00 39 1026.9
20260906141050 22 141 1.6 3.2 0.00 0.00 0.00 40 1026.9
20260906140548 21 215 1.6 4.8 0.00 0.00 0.00 41 1026.7
20260906140043 22 170 0.0 0.0 0.00 0.00 0.00 40 1026.6
20260906135540 22 159 0.0 0.0 0.00 0.00 0.00 41 1026.8
20260906135037 21 140 1.6 3.2 0.00 0.00 0.00 42 1026.7
20260906134536 21 80 4.8 8.0 0.00 0.00 0.00 41 1026.5
20260906134031 21 148 0.0 4.8 0.00 0.00 0.00 42 1026.6
20260906133527 21 204 1.6 8.0 0.00 0.00 0.00 41 1026.6
20260906133023 21 158 0.0 3.2 0.00 0.00 0.00 42 1026.6
20260906132518 20 112 3.2 8.0 0.00 0.00 0.00 42 1026.3
20260906132013 20 347 6.4 12.9 0.00 0.00 0.00 42 1026.2
20260906131508 20 337 6.4 8.0 0.00 0.00 0.00 42 1026.6
20260906131004 20 160 0.0 4.8 0.00 0.00 0.00 41 1026.3
20260906130503 20 21 4.8 9.7 0.00 0.00 0.00 41 1026.2
20260906125958 20 18 4.8 9.7 0.00 0.00 0.00 41 1026.3
20260906125455 20 31 8.0 12.9 0.00 0.00 0.00 40 1026.2
20260906124955 20 34 1.6 8.0 0.00 0.00 0.00 41 1026.3
20260906124450 20 288 3.2 8.0 0.00 0.00 0.00 40 1026.2
20260906123945 20 82 3.2 3.2 0.00 0.00 0.00 41 1026.3
20260906123444 20 152 1.6 4.8 0.00 0.00 0.00 41 1026.1
20260906122939 20 163 0.0 12.9 0.00 0.00 0.00 40 1026.2
20260906122434 21 82 3.2 9.7 0.00 0.00 0.00 40 1026.0
20260906121931 21 334 4.8 9.7 0.00 0.00 0.00 40 1026.0
20260906121427 21 26 3.2 8.0 0.00 0.00 0.00 40 1025.8
20260906120923 21 337 1.6 4.8 0.00 0.00 0.00 40 1026.0
20260906120419 20 164 0.0 0.0 0.00 0.00 0.00 42 1026.0
20260906115914 20 133 0.0 0.0 0.00 0.00 0.00 44 1025.9
20260906115410 20 133 0.0 0.0 0.00 0.00 0.00 45 1025.9
20260906114909 20 133 0.0 3.2 0.00 0.00 0.00 45 1026.1
20260906114404 20 133 0.0 0.0 0.00 0.00 0.00 45 1026.1
20260906113900 20 133 0.0 3.2 0.00 0.00 0.00 45 1026.0
20260906113358 21 133 0.0 0.0 0.00 0.00 0.00 44 1026.0
20260906112854 21 133 0.0 0.0 0.00 0.00 0.00 42 1026.0
20260906112349 21 132 0.0 0.0 0.00 0.00 0.00 43 1026.1
20260906111849 21 132 0.0 0.0 0.00 0.00 0.00 43 1026.0
20260906111349 21 133 0.0 0.0 0.00 0.00 0.00 43 1026.0
20260906110839 21 133 0.0 0.0 0.00 0.00 0.00 41 1026.0
20260906110335 21 133 0.0 0.0 0.00 0.00 0.00 42 1025.9
20260906105833 21 133 0.0 0.0 0.00 0.00 0.00 42 1026.0
20260906105329 21 133 0.0 0.0 0.00 0.00 0.00 41 1026.2
20260906104825 21 133 0.0 0.0 0.00 0.00 0.00 40 1026.1
20260906104323 22 133 0.0 0.0 0.00 0.00 0.00 39 1026.1
20260906103821 22 133 0.0 0.0 0.00 0.00 0.00 38 1026.1
20260906103315 22 133 0.0 3.2 0.00 0.00 0.00 38 1026.0
20260906102811 22 133 0.0 0.0 0.00 0.00 0.00 38 1026.0
20260906102310 22 133 0.0 3.2 0.00 0.00 0.00 38 1026.0
20260906101805 22 133 0.0 3.2 0.00 0.00 0.00 37 1026.2
20260906101300 22 133 0.0 0.0 0.00 0.00 0.00 37 1026.1
20260906100756 23 128 0.0 0.0 0.00 0.00 0.00 36 1026.1
20260906100255 23 125 1.6 3.2 0.00 0.00 0.00 35 1026.0
20260906095750 23 3 1.6 8.0 0.00 0.00 0.00 35 1025.8
20260906095246 23 100 6.4 8.0 0.00 0.00 0.00 35 1025.9
20260906094745 22 142 3.2 3.2 0.00 0.00 0.00 37 1025.8
20260906094240 22 179 0.0 0.0 0.00 0.00 0.00 39 1025.8
20260906093736 22 177 0.0 0.0 0.00 0.00 0.00 39 1025.6
20260906093231 22 150 0.0 0.0 0.00 0.00 0.00 40 1025.6
20260906092726 22 149 0.0 0.0 0.00 0.00 0.00 39 1025.6
20260906092220 22 149 0.0 0.0 0.00 0.00 0.00 39 1025.5
20260906091717 22 151 0.0 0.0 0.00 0.00 0.00 39 1025.5
20260906091213 22 145 0.0 3.2 0.00 0.00 0.00 39 1025.4
20260906090709 22 145 0.0 3.2 0.00 0.00 0.00 39 1025.4
20260906090208 22 155 0.0 3.2 0.00 0.00 0.00 40 1025.3
20260906085707 22 141 1.6 3.2 0.00 0.00 0.00 39 1025.2
20260906085206 22 118 3.2 4.8 0.00 0.00 0.00 39 1025.3
20260906084701 22 160 0.0 0.0 0.00 0.00 0.00 39 1025.5
20260906084200 22 138 0.0 3.2 0.00 0.00 0.00 38 1025.5
20260906083655 22 155 1.6 3.2 0.00 0.00 0.00 38 1025.8
20260906083151 22 134 1.6 8.0 0.00 0.00 0.00 37 1025.6
20260906082646 22 121 1.6 8.0 0.00 0.00 0.00 38 1025.5
20260906082141 22 138 0.0 4.8 0.00 0.00 0.00 39 1025.6
20260906081637 22 133 3.2 4.8 0.00 0.00 0.00 39 1025.6
20260906081132 22 140 1.6 4.8 0.00 0.00 0.00 38 1025.5
20260906080629 22 151 0.0 8.0 0.00 0.00 0.00 39 1025.8
20260906080124 22 135 3.2 8.0 0.00 0.00 0.00 39 1025.9
20260906075618 22 113 1.6 4.8 0.00 0.00 0.00 39 1026.0
20260906075113 22 135 3.2 4.8 0.00 0.00 0.00 39 1026.0
20260906074608 22 110 4.8 8.0 0.00 0.00 0.00 38 1026.1
20260906074108 22 99 4.8 8.0 0.00 0.00 0.00 39 1025.9
20260906073608 22 105 3.2 3.2 0.00 0.00 0.00 39 1026.1
20260906073103 22 105 3.2 8.0 0.00 0.00 0.00 39 1026.1
20260906072558 22 100 3.2 4.8 0.00 0.00 0.00 39 1025.9
20260906072054 22 120 3.2 4.8 0.00 0.00 0.00 39 1025.9
20260906071551 22 114 3.2 4.8 0.00 0.00 0.00 40 1026.1
20260906071045 22 154 0.0 0.0 0.00 0.00 0.00 41 1026.1
20260906070542 22 127 3.2 8.0 0.00 0.00 0.00 42 1026.0
20260906070037 22 143 1.6 3.2 0.00 0.00 0.00 41 1026.0
20260906065537 22 150 0.0 0.0 0.00 0.00 0.00 42 1026.0
20260906065032 22 153 0.0 3.2 0.00 0.00 0.00 41 1026.2
20260906064528 23 140 0.0 3.2 0.00 0.00 0.00 40 1026.0
20260906064023 23 157 0.0 3.2 0.00 0.00 0.00 39 1026.0
20260906063519 23 143 0.0 3.2 0.00 0.00 0.00 39 1026.0
20260906063014 23 157 0.0 3.2 0.00 0.00 0.00 39 1026.1
20260906062509 23 139 1.6 4.8 0.00 0.00 0.00 38 1026.1
20260906062003 23 147 3.2 3.2 0.00 0.00 0.00 38 1026.0
20260906061454 23 106 1.6 3.2 0.00 0.00 0.00 38 1026.0
20260906060953 23 95 4.8 4.8 0.00 0.00 0.00 38 1026.0
20260906060450 23 148 0.0 0.0 0.00 0.00 0.00 39 1025.9
20260906055946 23 152 0.0 3.2 0.00 0.00 0.00 38 1025.9
20260906055437 23 154 0.0 0.0 0.00 0.00 0.00 38 1025.6
20260906054932 24 151 0.0 0.0 0.00 0.00 0.00 37 1025.8
20260906054427 24 149 0.0 0.0 0.00 0.00 0.00 36 1025.6
20260906053922 25 148 0.0 0.0 0.00 0.00 0.00 35 1025.4
20260906053418 25 150 0.0 3.2 0.00 0.00 0.00 35 1025.6
20260906052914 25 151 0.0 0.0 0.00 0.00 0.00 35 1025.8
20260906052410 25 149 0.0 0.0 0.00 0.00 0.00 33 1025.6
20260906051906 25 148 0.0 3.2 0.00 0.00 0.00 33 1025.6
20260906051406 25 145 0.0 3.2 0.00 0.00 0.00 32 1025.6
20260906050902 26 159 0.0 3.2 0.00 0.00 0.00 32 1025.5
20260906050356 26 168 0.0 3.2 0.00 0.00 0.00 31 1025.5
20260906045855 25 69 3.2 4.8 0.00 0.00 0.00 32 1025.6
20260906045349 25 76 1.6 4.8 0.00 0.00 0.00 32 1025.5
20260906044846 25 75 1.6 3.2 0.00 0.00 0.00 32 1025.5
20260906044345 25 85 0.0 0.0 0.00 0.00 0.00 33 1025.5
20260906043841 25 68 1.6 4.8 0.00 0.00 0.00 32 1025.4
20260906043337 25 117 0.0 0.0 0.00 0.00 0.00 33 1025.5
20260906042832 25 117 0.0 0.0 0.00 0.00 0.00 33 1025.6
20260906042331 25 113 0.0 0.0 0.00 0.00 0.00 34 1025.5
20260906041827 26 113 1.6 3.2 0.00 0.00 0.00 33 1025.4
20260906041323 26 108 0.0 4.8 0.00 0.00 0.00 32 1025.6
20260906040822 26 107 0.0 4.8 0.00 0.00 0.00 31 1025.5
20260906040317 26 128 0.0 0.0 0.00 0.00 0.00 32 1025.6
20260906035813 26 151 0.0 3.2 0.00 0.00 0.00 32 1025.6
20260906035308 26 58 0.0 3.2 0.00 0.00 0.00 31 1025.5
20260906034803 26 140 1.6 4.8 0.00 0.00 0.00 32 1025.8
20260906034303 26 153 0.0 3.2 0.00 0.00 0.00 33 1025.5
20260906033759 26 162 0.0 0.0 0.00 0.00 0.00 33 1025.6
20260906033258 26 153 0.0 4.8 0.00 0.00 0.00 33 1025.4
20260906032756 26 144 0.0 4.8 0.00 0.00 0.00 32 1025.6
20260906032255 26 139 0.0 3.2 0.00 0.00 0.00 32 1025.4
20260906031750 26 160 0.0 3.2 0.00 0.00 0.00 33 1025.1
20260906031247 26 154 0.0 3.2 0.00 0.00 0.00 34 1025.1
20260906030746 27 149 0.0 3.2 0.00 0.00 0.00 33 1024.9
20260906030242 27 153 0.0 8.0 0.00 0.00 0.00 31 1025.1
20260906025742 27 44 3.2 8.0 0.00 0.00 0.00 31 1024.8
20260906025241 26 108 1.6 3.2 0.00 0.00 0.00 32 1024.7
20260906024740 26 358 0.0 3.2 0.00 0.00 0.00 33 1024.7
20260906024239 26 140 0.0 0.0 0.00 0.00 0.00 34 1024.5
20260906023735 26 148 0.0 0.0 0.00 0.00 0.00 35 1024.6
20260906023230 27 149 0.0 0.0 0.00 0.00 0.00 35 1024.6
20260906022726 27 150 0.0 0.0 0.00 0.00 0.00 33 1024.5
20260906022221 27 178 0.0 0.0 0.00 0.00 0.00 33 1024.3
20260906021717 28 179 0.0 0.0 0.00 0.00 0.00 32 1024.2
20260906021215 28 180 0.0 0.0 0.00 0.00 0.00 31 1024.5
20260906020711 28 157 0.0 4.8 0.00 0.00 0.00 31 1024.3
20260906020205 28 174 0.0 0.0 0.00 0.00 0.00 31 1024.2
20260906015700 28 138 0.0 4.8 0.00 0.00 0.00 31 1024.2
20260906015158 28 157 0.0 0.0 0.00 0.00 0.00 30 1024.2
20260906014652 29 224 0.0 3.2 0.00 0.00 0.00 29 1024.2
20260906014148 29 277 4.8 8.0 0.00 0.00 0.00 29 1024.1
20260906013644 29 270 4.8 8.0 0.00 0.00 0.00 29 1024.1
20260906013139 30 246 1.6 8.0 0.00 0.00 0.00 29 1024.2
20260906012639 30 214 3.2 8.0 0.00 0.00 0.00 29 1024.1
20260906012134 30 211 1.6 8.0 0.00 0.00 0.00 29 1024.1
20260906011630 30 297 3.2 4.8 0.00 0.00 0.00 29 1024.2
20260906011124 30 181 0.0 3.2 0.00 0.00 0.00 29 1024.2
20260906010619 30 180 0.0 0.0 0.00 0.00 0.00 28 1024.2
20260906010116 30 192 1.6 4.8 0.00 0.00 0.00 28 1024.1
20260906005609 31 352 3.2 8.0 0.00 0.00 0.00 28 1024.1
20260906005108 31 229 8.0 16.1 0.00 0.00 0.00 28 1024.2
20260906004608 31 267 9.7 17.7 0.00 0.00 0.00 28 1024.2
20260906004103 31 292 8.0 12.9 0.00 0.00 0.00 27 1024.1
20260906003558 31 215 1.6 4.8 0.00 0.00 0.00 27 1024.1
20260906003054 31 184 0.0 8.0 0.00 0.00 0.00 27 1024.2
20260906002549 31 339 6.4 8.0 0.00 0.00 0.00 28 1024.2
20260906002043 32 190 4.8 8.0 0.00 0.00 0.00 27 1024.1
20260906001538 32 208 4.8 9.7 0.00 0.00 0.00 27 1024.2
20260906001032 32 309 6.4 9.7 0.00 0.00 0.00 26 1024.1
20260906000529 32 177 1.6 12.9 0.00 0.00 0.00 26 1024.0
20260906000024 32 236 6.4 16.1 0.00 0.00 0.00 26 1024.1
20260905235517 32 192 4.8 4.8 0.00 0.00 0.00 26 1024.1
20260905235013 33 170 4.8 9.7 0.00 0.00 0.00 25 1024.0